EW0152 Weather Reports


time (UTC)temp
C
wind
direction
speed
KPH
gust
KPH
rain 1hr
cm
rain 24hr
cm
rain mn
cm
humidity
%
barometer
mb
20260505065558 11 0 1.6 6.4 0.00 0.00 0.00 72 1014.3
20260505065057 11 180 1.6 12.9 0.00 0.00 0.00 72 1014.3
20260505064606 11 187 3.2 12.9 0.00 0.00 0.00 72 1014.3
20260505064057 11 0 1.6 6.4 0.00 0.00 0.00 72 1014.4
20260505063557 11 0 0.0 6.4 0.00 0.00 0.00 71 1014.3
20260505063113 11 218 0.0 4.8 0.00 0.00 0.00 71 1014.3
20260505062558 11 221 0.0 3.2 0.00 0.00 0.00 71 1014.3
20260505062058 11 0 0.0 3.2 0.00 0.00 0.00 71 1014.4
20260505061612 11 0 0.0 14.5 0.00 0.00 0.00 71 1014.4
20260505061058 11 0 0.0 14.5 0.00 0.00 0.00 71 1014.4
20260505060558 11 0 0.0 9.7 0.00 0.00 0.00 71 1014.3
20260505060059 11 198 0.0 9.7 0.00 0.00 0.00 71 1014.4
20260505055559 11 204 0.0 4.8 0.00 0.00 0.00 70 1014.4
20260505055058 12 205 0.0 4.8 0.00 0.00 0.00 70 1014.5
20260505054558 12 0 0.0 4.8 0.00 0.00 0.00 70 1014.5
20260505054058 12 209 0.0 3.2 0.00 0.00 0.00 69 1014.5
20260505053558 12 233 0.0 8.0 0.00 0.00 0.00 69 1014.5
20260505053108 12 234 0.0 8.0 0.00 0.00 0.00 69 1014.4
20260505052602 12 0 0.0 12.9 0.00 0.00 0.00 68 1014.4
20260505052057 12 0 1.6 12.9 0.00 0.00 0.00 68 1014.5
20260505051558 12 0 1.6 11.3 0.00 0.00 0.00 67 1014.5
20260505051058 12 182 1.6 6.4 0.00 0.00 0.00 67 1014.5
20260505050558 12 193 1.6 8.0 0.00 0.00 0.00 67 1014.5
20260505041557 12 0 3.2 9.7 0.00 0.00 0.00 64 1014.7
20260505041058 12 169 3.2 9.7 0.00 0.00 0.00 64 1014.7
20260505040601 12 253 1.6 9.7 0.00 0.00 0.00 64 1014.7
20260505040103 12 175 3.2 9.7 0.00 0.00 0.00 64 1014.6
20260505035557 12 170 1.6 11.3 0.00 0.00 0.00 63 1014.6
20260505035058 13 157 3.2 14.5 0.00 0.00 0.00 63 1014.6
20260505034558 13 0 4.8 12.9 0.00 0.00 0.00 63 1014.5
20260505034057 13 173 4.8 11.3 0.00 0.00 0.00 62 1014.4
20260505033558 13 164 1.6 12.9 0.00 0.00 0.00 62 1014.5
20260505033115 13 234 6.4 12.9 0.00 0.00 0.00 62 1014.5
20260505032558 13 161 4.8 12.9 0.00 0.00 0.00 61 1014.4
20260505032059 13 161 4.8 12.9 0.00 0.00 0.00 61 1014.5
20260505031556 13 159 6.4 12.9 0.00 0.00 0.00 60 1014.6
20260505031102 13 170 4.8 14.5 0.00 0.00 0.00 60 1014.5
20260505030601 13 178 3.2 14.5 0.00 0.00 0.00 60 1014.5
20260505030056 13 163 4.8 9.7 0.00 0.00 0.00 59 1014.6
20260505025557 13 171 1.6 9.7 0.00 0.00 0.00 59 1014.6
20260505025057 13 173 4.8 14.5 0.00 0.00 0.00 58 1014.6
20260505024604 13 171 4.8 14.5 0.00 0.00 0.00 58 1014.6
20260505024057 13 170 3.2 14.5 0.00 0.00 0.00 57 1014.6
20260505023600 13 163 1.6 12.9 0.00 0.00 0.00 57 1014.6
20260505023106 13 128 3.2 14.5 0.00 0.00 0.00 56 1014.6
20260505022557 14 165 4.8 14.5 0.00 0.00 0.00 56 1014.6
20260505022102 14 162 4.8 12.9 0.00 0.00 0.00 55 1014.6
20260505021600 14 176 4.8 16.1 0.00 0.00 0.00 55 1014.7
20260505021057 14 176 6.4 16.1 0.00 0.00 0.00 54 1014.6
20260505020557 14 175 3.2 12.9 0.00 0.00 0.00 54 1014.7
20260505020059 14 165 3.2 12.9 0.00 0.00 0.00 54 1014.7
20260505015559 14 186 3.2 12.9 0.00 0.00 0.00 53 1014.6
20260505015058 14 165 4.8 12.9 0.00 0.00 0.00 53 1014.7
20260505014609 14 172 4.8 16.1 0.00 0.00 0.00 52 1014.6
20260505014059 15 167 6.4 16.1 0.00 0.00 0.00 51 1014.5
20260505013558 15 184 3.2 14.5 0.00 0.00 0.00 51 1014.5
20260505013058 15 166 6.4 14.5 0.00 0.00 0.00 50 1014.5
20260505012559 15 198 4.8 12.9 0.00 0.00 0.00 50 1014.5
20260505012058 15 167 4.8 12.9 0.00 0.00 0.00 50 1014.4
20260505011609 15 161 4.8 16.1 0.00 0.00 0.00 49 1014.2
20260505011100 15 171 4.8 16.1 0.00 0.00 0.00 48 1014.1
20260505010557 15 177 6.4 16.1 0.00 0.00 0.00 48 1014.1
20260505010109 15 179 4.8 16.1 0.00 0.00 0.00 48 1014.1
20260505005557 15 175 6.4 16.1 0.00 0.00 0.00 48 1014.0
20260505005057 15 116 6.4 16.1 0.00 0.00 0.00 48 1013.8
20260505004604 15 213 6.4 20.9 0.00 0.00 0.00 47 1013.7
20260505004102 15 155 8.0 20.9 0.00 0.00 0.00 47 1013.6
20260505003559 15 169 8.0 19.3 0.00 0.00 0.00 47 1013.6
20260505003104 15 171 9.7 19.3 0.00 0.00 0.00 47 1013.5
20260505002558 16 152 8.0 17.7 0.00 0.00 0.00 47 1013.5
20260505002057 16 183 8.0 17.7 0.00 0.00 0.00 47 1013.2
20260505001607 16 172 4.8 16.1 0.00 0.00 0.00 47 1013.1
20260505001101 16 157 8.0 19.3 0.00 0.00 0.00 46 1013.1
20260505000558 16 186 6.4 19.3 0.00 0.00 0.00 46 1012.9
20260504235559 17 171 4.8 16.1 0.00 0.00 0.00 44 1012.7
20260504235102 17 180 8.0 19.3 0.00 0.00 0.00 43 1012.8
20260504234624 17 178 6.4 20.9 0.00 0.00 0.00 43 1012.7
20260504234057 17 167 8.0 20.9 0.00 0.00 0.00 42 1012.5
20260504233557 17 173 8.0 22.5 0.00 0.00 0.00 41 1012.4
20260504233058 18 168 6.4 22.5 0.00 0.00 0.00 40 1012.3
20260504232558 18 160 8.0 24.1 0.00 0.00 0.00 40 1012.2
20260504232057 18 165 11.3 27.4 0.00 0.00 0.00 40 1012.1
20260504231601 18 185 8.0 27.4 0.00 0.00 0.00 40 1012.1
20260504231057 18 178 11.3 27.4 0.00 0.00 0.00 40 1012.0
20260504230559 18 162 6.4 19.3 0.00 0.00 0.00 40 1011.7
20260504230057 18 199 6.4 19.3 0.00 0.00 0.00 40 1011.5
20260504225556 18 207 6.4 19.3 0.00 0.00 0.00 39 1011.4
20260504225058 18 156 8.0 19.3 0.00 0.00 0.00 39 1011.4
20260504224605 19 150 6.4 22.5 0.00 0.00 0.00 39 1011.3
20260504224056 19 171 8.0 22.5 0.00 0.00 0.00 38 1011.2
20260504223558 19 175 11.3 20.9 0.00 0.00 0.00 37 1011.3
20260504223056 19 134 8.0 24.1 0.00 0.00 0.00 38 1011.2
20260504222558 19 161 9.7 24.1 0.00 0.00 0.00 37 1011.1
20260504222100 20 166 4.8 24.1 0.00 0.00 0.00 37 1011.3
20260504221603 20 213 8.0 27.4 0.00 0.00 0.00 36 1011.1
20260504221057 20 240 9.7 32.2 0.00 0.00 0.00 36 1011.1
20260504220557 20 297 9.7 32.2 0.00 0.00 0.00 36 1011.1
20260504220058 20 163 8.0 29.0 0.00 0.00 0.00 35 1011.0
20260504215557 20 168 9.7 20.9 0.00 0.00 0.00 35 1011.0
20260504215056 20 145 9.7 20.9 0.00 0.00 0.00 34 1011.1
20260504214603 20 197 6.4 20.9 0.00 0.00 0.00 33 1011.0
20260504214057 21 172 8.0 20.9 0.00 0.00 0.00 33 1010.9
20260504213557 21 196 6.4 19.3 0.00 0.00 0.00 29 1010.9
20260504213103 21 171 8.0 19.3 0.00 0.00 0.00 29 1010.9
20260504212557 21 195 9.7 19.3 0.00 0.00 0.00 29 1010.9
20260504212059 21 157 9.7 17.7 0.00 0.00 0.00 29 1010.9
20260504211602 21 212 6.4 14.5 0.00 0.00 0.00 30 1010.8
20260504211056 21 160 6.4 22.5 0.00 0.00 0.00 30 1010.8
20260504210558 21 176 8.0 22.5 0.00 0.00 0.00 30 1010.9
20260504210104 21 209 6.4 25.7 0.00 0.00 0.00 30 1010.8
20260504205602 21 218 4.8 25.7 0.00 0.00 0.00 30 1010.8
20260504205101 22 219 4.8 25.7 0.00 0.00 0.00 29 1010.8
20260504204636 21 170 4.8 17.7 0.00 0.00 0.00 29 1010.7
20260504204057 21 159 4.8 17.7 0.00 0.00 0.00 29 1010.7
20260504203557 21 216 6.4 19.3 0.00 0.00 0.00 29 1010.8
20260504203054 22 175 8.0 19.3 0.00 0.00 0.00 28 1010.8
20260504202557 22 247 4.8 19.3 0.00 0.00 0.00 29 1010.8
20260504202056 22 266 4.8 20.9 0.00 0.00 0.00 28 1010.8
20260504201556 22 225 6.4 20.9 0.00 0.00 0.00 27 1010.8
20260504201057 22 240 3.2 16.1 0.00 0.00 0.00 30 1010.8
20260504200557 22 276 6.4 16.1 0.00 0.00 0.00 29 1010.9
20260504200059 22 159 4.8 17.7 0.00 0.00 0.00 29 1010.9
20260504195556 22 212 8.0 19.3 0.00 0.00 0.00 28 1010.9
20260504195101 22 205 6.4 24.1 0.00 0.00 0.00 28 1011.0
20260504194558 22 155 6.4 24.1 0.00 0.00 0.00 28 1011.1
20260504194059 22 171 3.2 20.9 0.00 0.00 0.00 28 1010.9
20260504193601 22 0 8.0 20.9 0.00 0.00 0.00 28 1010.9
20260504193055 22 170 9.7 22.5 0.00 0.00 0.00 28 1010.9
20260504192556 21 166 8.0 25.7 0.00 0.00 0.00 28 1010.9
20260504192057 21 149 8.0 25.7 0.00 0.00 0.00 27 1011.0
20260504191555 22 175 6.4 27.4 0.00 0.00 0.00 28 1010.9
20260504191057 22 162 9.7 27.4 0.00 0.00 0.00 26 1011.0
20260504190559 22 225 6.4 25.7 0.00 0.00 0.00 28 1011.2
20260504185556 22 242 9.7 27.4 0.00 0.00 0.00 27 1011.4
20260504185100 22 230 6.4 30.6 0.00 0.00 0.00 27 1011.1
20260504184604 22 175 12.9 30.6 0.00 0.00 0.00 27 1011.3
20260504184057 21 227 8.0 22.5 0.00 0.00 0.00 28 1011.3
20260504183557 21 167 11.3 25.7 0.00 0.00 0.00 27 1011.4
20260504183059 21 164 9.7 25.7 0.00 0.00 0.00 28 1011.4
20260504182559 21 166 6.4 29.0 0.00 0.00 0.00 29 1011.4
20260504182056 21 163 8.0 29.0 0.00 0.00 0.00 28 1011.6
20260504181555 21 221 6.4 17.7 0.00 0.00 0.00 27 1011.6
20260504181056 21 248 4.8 17.7 0.00 0.00 0.00 28 1011.7
20260504180600 21 276 1.6 30.6 0.00 0.00 0.00 28 1011.7
20260504180058 21 192 9.7 30.6 0.00 0.00 0.00 28 1011.8
20260504175559 21 190 9.7 30.6 0.00 0.00 0.00 27 1011.9
20260504175057 21 213 6.4 30.6 0.00 0.00 0.00 29 1011.9
20260504174555 21 188 11.3 30.6 0.00 0.00 0.00 28 1011.8
20260504174057 21 184 4.8 22.5 0.00 0.00 0.00 31 1011.8
20260504173555 21 219 8.0 32.2 0.00 0.00 0.00 29 1011.8
20260504173054 21 238 9.7 35.4 0.00 0.00 0.00 28 1011.9
20260504172556 21 245 9.7 35.4 0.00 0.00 0.00 28 1011.8
20260504172056 21 240 9.7 35.4 0.00 0.00 0.00 30 1012.0
20260504171557 21 319 6.4 27.4 0.00 0.00 0.00 30 1011.8
20260504171057 21 191 8.0 25.7 0.00 0.00 0.00 29 1011.9
20260504170557 21 257 3.2 25.7 0.00 0.00 0.00 30 1011.9
20260504151056 18 210 4.8 30.6 0.00 0.00 0.00 34 1013.2
20260504150600 18 169 8.0 22.5 0.00 0.00 0.00 33 1013.1
20260504150104 18 253 8.0 22.5 0.00 0.00 0.00 34 1013.1
20260504141102 17 223 4.8 24.1 0.00 0.00 0.00 38 1013.7
20260504140559 16 187 3.2 24.1 0.00 0.00 0.00 38 1013.7
20260504130601 13 244 3.2 16.1 0.00 0.00 0.00 44 1014.6
20260504110558 9 243 0.0 16.1 0.00 0.00 0.00 51 1014.8
20260504100559 8 236 1.6 11.3 0.00 0.00 0.00 55 1014.8
20260504100103 7 243 1.6 11.3 0.00 0.00 0.00 54 1014.8
20260504081558 7 0 0.0 4.8 0.00 0.00 0.00 57 1014.7
20260504081058 7 0 0.0 4.8 0.00 0.00 0.00 60 1014.6
20260504080557 7 253 0.0 1.6 0.00 0.00 0.00 60 1014.6
20260504070103 6 0 0.0 4.8 0.00 0.00 0.00 60 1014.6